RYR550 EDDN-LIRN

Flight info

Callsign RYR550
Flight time N/A
Altitude 33000
Route BOLSI1C BOLSI Y167 AKANU L603 OLETU Z106 MANAL M736 LIZUM N503 LIKDA DCT BAKOR DCT GOTMO DCT EVULI DCT ERIKA
Aircraft B739/M-SDE2E3FGHIRWXY/LB1

Departure

Time 2026-04-28 15:55
Airport Nuremberg Airport (EDDN)

Arrival

Time N/A
Airport Naples International Airport (LIRN)
Time Latitude Longitude Altitude Speed Heading
2026-04-28 15:26 49.49456 11.08370 1031 ft 0 kts 188°
2026-04-28 15:41 49.49466 11.08372 1031 ft 1 kts 188°
2026-04-28 15:41 49.49476 11.08374 1031 ft 1 kts 188°
2026-04-28 15:41 49.49486 11.08376 1032 ft 2 kts 188°
2026-04-28 15:42 49.49500 11.08380 1032 ft 2 kts 188°
2026-04-28 15:42 49.49514 11.08383 1032 ft 2 kts 201°
2026-04-28 15:42 49.49521 11.08389 1033 ft 0 kts 274°
2026-04-28 15:46 49.49523 11.08380 1032 ft 2 kts 285°
2026-04-28 15:46 49.49533 11.08312 1031 ft 7 kts 277°
2026-04-28 15:46 49.49538 11.08253 1030 ft 9 kts 277°
2026-04-28 15:46 49.49539 11.08237 1030 ft 0 kts 277°
2026-04-28 15:47 49.49540 11.08232 1029 ft 1 kts 277°
2026-04-28 15:47 49.49542 11.08205 1029 ft 4 kts 277°
2026-04-28 15:47 49.49547 11.08154 1029 ft 5 kts 281°
2026-04-28 15:48 49.49554 11.08093 1029 ft 6 kts 280°
2026-04-28 15:48 49.49560 11.08029 1029 ft 6 kts 279°
2026-04-28 15:48 49.49567 11.07965 1029 ft 6 kts 278°
2026-04-28 15:48 49.49573 11.07899 1029 ft 7 kts 279°
2026-04-28 15:49 49.49582 11.07823 1029 ft 9 kts 283°
2026-04-28 15:49 49.49630 11.07774 1030 ft 6 kts 355°
2026-04-28 15:49 49.49669 11.07757 1030 ft 6 kts 327°
2026-04-28 15:49 49.49691 11.07676 1031 ft 12 kts 279°
2026-04-28 15:50 49.49708 11.07517 1029 ft 18 kts 278°
2026-04-28 15:50 49.49728 11.07301 1026 ft 21 kts 278°
2026-04-28 15:50 49.49750 11.07078 1022 ft 21 kts 278°
2026-04-28 15:50 49.49771 11.06861 1018 ft 20 kts 278°
2026-04-28 15:51 49.49792 11.06651 1016 ft 20 kts 279°
2026-04-28 15:51 49.49798 11.06594 1016 ft 1 kts 279°
2026-04-28 15:51 49.49799 11.06578 1016 ft 4 kts 277°
2026-04-28 15:51 49.49806 11.06508 1017 ft 9 kts 278°
2026-04-28 15:52 49.49819 11.06369 1019 ft 17 kts 278°
2026-04-28 15:52 49.49842 11.06143 1018 ft 22 kts 279°
2026-04-28 15:52 49.49880 11.05990 1021 ft 14 kts 321°
2026-04-28 15:52 49.49936 11.05952 1020 ft 3 kts 338°
2026-04-28 15:53 49.49942 11.05949 1019 ft 0 kts 338°
2026-04-28 15:53 49.49944 11.05947 1019 ft 1 kts 339°
2026-04-28 15:53 49.49989 11.05938 1018 ft 13 kts
2026-04-28 15:54 49.50043 11.06024 1018 ft 9 kts 89°
2026-04-28 15:54 49.50042 11.06038 1018 ft 0 kts 94°
2026-04-28 15:54 49.50027 11.06223 1019 ft 52 kts 99°
2026-04-28 15:54 49.49929 11.07203 1025 ft 129 kts 98°
2026-04-28 15:55 49.49761 11.08868 1173 ft 176 kts 97°
2026-04-28 15:55 49.49522 11.10766 1872 ft 192 kts 96°
2026-04-28 15:55 49.49317 11.12899 2385 ft 214 kts 96°
2026-04-28 15:55 49.49100 11.15206 2854 ft 219 kts 97°
2026-04-28 15:56 49.48877 11.17540 3325 ft 221 kts 96°
2026-04-28 15:56 49.48651 11.19872 3826 ft 224 kts 97°
2026-04-28 15:56 49.48407 11.22269 4354 ft 228 kts 101°
2026-04-28 15:56 49.47660 11.24417 4834 ft 236 kts 137°
2026-04-28 15:57 49.46134 11.25342 5337 ft 247 kts 174°
2026-04-28 15:57 49.44395 11.25119 5920 ft 256 kts 183°
2026-04-28 15:57 49.42602 11.24783 6436 ft 260 kts 183°
2026-04-28 15:57 49.40778 11.24475 6890 ft 271 kts 183°
2026-04-28 15:58 49.38854 11.24202 7269 ft 279 kts 182°
2026-04-28 15:58 49.36912 11.23958 7652 ft 281 kts 183°
2026-04-28 15:58 49.34976 11.23727 8030 ft 285 kts 183°
2026-04-28 15:58 49.33006 11.23314 8389 ft 289 kts 197°
2026-04-28 15:59 49.31316 11.21666 8767 ft 291 kts 229°
2026-04-28 15:59 49.30313 11.19015 9161 ft 290 kts 252°
2026-04-28 15:59 49.29772 11.16035 9582 ft 289 kts 256°
2026-04-28 15:59 49.29297 11.13041 9972 ft 290 kts 257°
2026-04-28 16:00 49.28829 11.10044 10336 ft 290 kts 257°
2026-04-28 16:00 49.28355 11.07043 10700 ft 290 kts 257°
2026-04-28 16:00 49.27873 11.04039 11057 ft 290 kts 257°
2026-04-28 16:00 49.27384 11.01023 11452 ft 297 kts 257°
2026-04-28 16:01 49.26876 10.97926 11781 ft 310 kts 257°
2026-04-28 16:01 49.26336 10.94655 12108 ft 323 kts 257°
2026-04-28 16:01 49.25774 10.91268 12440 ft 335 kts 257°
2026-04-28 16:01 49.25189 10.87760 12774 ft 346 kts 257°
2026-04-28 16:02 49.24584 10.84141 13094 ft 356 kts 257°
2026-04-28 16:02 49.23951 10.80454 13410 ft 360 kts 254°
2026-04-28 16:02 49.22774 10.77077 13686 ft 365 kts 231°
2026-04-28 16:02 49.20826 10.74601 14038 ft 368 kts 211°
2026-04-28 16:03 49.18453 10.73084 14343 ft 370 kts 201°
2026-04-28 16:03 49.16017 10.71791 14624 ft 373 kts 200°
2026-04-28 16:03 49.13600 10.70508 14914 ft 375 kts 202°
2026-04-28 16:03 49.11094 10.69138 15210 ft 376 kts 201°
2026-04-28 16:04 49.08652 10.67839 15496 ft 379 kts 197°
2026-04-28 16:04 49.06021 10.67520 15761 ft 384 kts 173°
2026-04-28 16:04 49.03469 10.68735 16091 ft 391 kts 154°
2026-04-28 16:04 49.01253 10.71205 16413 ft 400 kts 137°
2026-04-28 16:05 48.99251 10.74197 16748 ft 406 kts 136°
2026-04-28 16:05 48.97251 10.77242 17051 ft 412 kts 136°
2026-04-28 16:05 48.95188 10.80328 17371 ft 417 kts 137°
2026-04-28 16:05 48.93087 10.83414 17683 ft 422 kts 137°
2026-04-28 16:06 48.90956 10.86523 18012 ft 426 kts 137°
2026-04-28 16:06 48.88813 10.89657 18326 ft 430 kts 137°
2026-04-28 16:06 48.86683 10.92777 18597 ft 432 kts 137°
2026-04-28 16:06 48.84522 10.95943 18879 ft 433 kts 137°
2026-04-28 16:07 48.82343 10.99130 19166 ft 435 kts 137°
2026-04-28 16:07 48.80166 11.02311 19446 ft 437 kts 137°
2026-04-28 16:07 48.75775 11.08707 20026 ft 439 kts 138°
2026-04-28 16:08 48.73566 11.11916 20316 ft 441 kts 138°
2026-04-28 16:08 48.71348 11.15134 20615 ft 443 kts 138°
2026-04-28 16:08 48.69122 11.18363 20919 ft 444 kts 138°
2026-04-28 16:09 48.64666 11.24818 21533 ft 448 kts 137°
2026-04-28 16:09 48.62565 11.28321 21844 ft 452 kts 130°
2026-04-28 16:09 48.60666 11.32122 22173 ft 454 kts 127°
2026-04-28 16:10 48.56994 11.39908 22817 ft 456 kts 127°
2026-04-28 16:10 48.55128 11.43771 23141 ft 457 kts 128°
2026-04-28 16:10 48.51301 11.51457 23782 ft 459 kts 128°
2026-04-28 16:11 48.47239 11.58836 24280 ft 454 kts 146°
2026-04-28 16:11 48.41672 11.62544 24875 ft 437 kts 172°
2026-04-28 16:12 48.35718 11.64436 25449 ft 438 kts 173°
2026-04-28 16:12 48.32737 11.65401 25755 ft 438 kts 173°
2026-04-28 16:13 48.26755 11.67433 26166 ft 444 kts 172°
2026-04-28 16:13 48.23740 11.68470 26367 ft 446 kts 172°
2026-04-28 16:13 48.17654 11.70556 26780 ft 450 kts 173°
2026-04-28 16:14 48.11510 11.72654 27069 ft 457 kts 173°
2026-04-28 16:14 48.05273 11.74775 27081 ft 469 kts 173°
2026-04-28 16:15 47.98835 11.76966 27072 ft 479 kts 173°
2026-04-28 16:15 47.95578 11.78074 27076 ft 480 kts 173°
2026-04-28 16:15 47.92337 11.79175 27062 ft 479 kts 173°
2026-04-28 16:16 47.85838 11.80108 27063 ft 463 kts 189°
2026-04-28 16:16 47.82626 11.79791 27028 ft 462 kts 190°
2026-04-28 16:17 47.76202 11.79228 27041 ft 463 kts 189°
2026-04-28 16:17 47.72981 11.79036 27041 ft 464 kts 188°
2026-04-28 16:17 47.69752 11.78865 27045 ft 464 kts 188°
2026-04-28 16:17 47.66528 11.78696 27048 ft 465 kts 188°
2026-04-28 16:18 47.63290 11.78527 27031 ft 466 kts 188°
2026-04-28 16:18 47.60094 11.78353 27018 ft 466 kts 188°
2026-04-28 16:18 47.56857 11.78157 27035 ft 467 kts 188°
2026-04-28 16:18 47.53594 11.77973 27036 ft 468 kts 188°
2026-04-28 16:19 47.50338 11.77793 27015 ft 469 kts 188°
2026-04-28 16:19 47.47084 11.77616 27047 ft 468 kts 188°
2026-04-28 16:19 47.43825 11.77443 27034 ft 470 kts 188°
2026-04-28 16:19 47.40563 11.77268 27032 ft 470 kts 188°
2026-04-28 16:20 47.37287 11.77084 27025 ft 470 kts 188°
2026-04-28 16:20 47.34018 11.76894 27029 ft 471 kts 188°
2026-04-28 16:20 47.30742 11.76697 27028 ft 471 kts 188°
2026-04-28 16:20 47.27504 11.76498 27033 ft 472 kts 188°
2026-04-28 16:21 47.24211 11.76298 27025 ft 475 kts 188°
2026-04-28 16:21 47.20902 11.76100 27034 ft 478 kts 188°
2026-04-28 16:21 47.17568 11.75906 27021 ft 479 kts 187°
2026-04-28 16:21 47.14248 11.75734 27006 ft 480 kts 187°
2026-04-28 16:22 47.10890 11.75564 27056 ft 481 kts 187°
2026-04-28 16:22 47.07547 11.75404 27039 ft 482 kts 187°
2026-04-28 16:22 47.04192 11.75221 27052 ft 483 kts 187°
2026-04-28 16:22 47.00879 11.75051 27068 ft 483 kts 187°
2026-04-28 16:23 46.97518 11.74879 27029 ft 484 kts 187°
2026-04-28 16:23 46.94154 11.74700 27035 ft 483 kts 187°
2026-04-28 16:23 46.90799 11.74517 27049 ft 481 kts 187°
2026-04-28 16:23 46.87454 11.74334 27063 ft 481 kts 187°
2026-04-28 16:24 46.84107 11.74152 27049 ft 482 kts 187°
2026-04-28 16:24 46.80751 11.73969 27045 ft 482 kts 187°
2026-04-28 16:24 46.77398 11.73788 27035 ft 482 kts 186°
2026-04-28 16:24 46.74045 11.73607 27056 ft 481 kts 186°
2026-04-28 16:25 46.70701 11.73428 27048 ft 481 kts 187°
2026-04-28 16:25 46.67405 11.73250 27065 ft 480 kts 187°
2026-04-28 16:25 46.64097 11.73071 27068 ft 480 kts 186°
2026-04-28 16:25 46.60751 11.72979 27058 ft 484 kts 181°
2026-04-28 16:26 46.57402 11.73805 27080 ft 490 kts 170°
2026-04-28 16:26 46.54102 11.75051 27075 ft 492 kts 169°
2026-04-28 16:26 46.50798 11.76365 27079 ft 492 kts 168°
2026-04-28 16:26 46.47503 11.77676 27071 ft 491 kts 168°
2026-04-28 16:27 46.44208 11.78960 27077 ft 492 kts 169°
2026-04-28 16:27 46.40893 11.80219 27084 ft 491 kts 169°
2026-04-28 16:27 46.34316 11.82649 27068 ft 491 kts 169°
2026-04-28 16:28 46.31003 11.83853 27067 ft 491 kts 169°
2026-04-28 16:28 46.27682 11.85056 27071 ft 491 kts 169°
2026-04-28 16:28 46.24371 11.86254 27087 ft 491 kts 169°
2026-04-28 16:28 46.21071 11.87503 27079 ft 492 kts 169°
2026-04-28 16:29 46.14416 11.89915 27088 ft 493 kts 170°
2026-04-28 16:29 46.07819 11.92262 27089 ft 491 kts 169°
2026-04-28 16:30 46.04492 11.93451 27076 ft 492 kts 169°
2026-04-28 16:30 46.01166 11.94639 27078 ft 492 kts 170°
2026-04-28 16:30 45.97839 11.95829 27062 ft 493 kts 170°
2026-04-28 16:30 45.94505 11.97023 27056 ft 494 kts 170°
2026-04-28 16:31 45.91167 11.98220 27055 ft 494 kts 170°
2026-04-28 16:31 45.87842 11.99412 27040 ft 495 kts 170°
2026-04-28 16:31 45.84494 12.00611 27043 ft 494 kts 170°
2026-04-28 16:31 45.81203 12.01788 27049 ft 494 kts 170°
2026-04-28 16:32 45.77873 12.02977 27040 ft 494 kts 170°
2026-04-28 16:32 45.71195 12.05356 27026 ft 493 kts 170°
2026-04-28 16:32 45.67871 12.06539 27040 ft 493 kts 170°
2026-04-28 16:33 45.64541 12.07722 27055 ft 492 kts 170°
2026-04-28 16:33 45.62343 12.08502 27050 ft 492 kts 170°
2026-04-28 16:33 45.57897 12.10077 27047 ft 492 kts 170°
2026-04-28 16:33 45.54570 12.11254 27047 ft 492 kts 170°
2026-04-28 16:34 45.51301 12.12409 27028 ft 492 kts 170°
2026-04-28 16:34 45.47977 12.13583 27038 ft 491 kts 170°
2026-04-28 16:34 45.44660 12.14752 26991 ft 493 kts 170°
2026-04-28 16:34 45.41313 12.15929 26773 ft 495 kts 170°
2026-04-28 16:35 45.37976 12.17104 26613 ft 491 kts 170°
2026-04-28 16:35 45.34675 12.18266 26462 ft 488 kts 170°
2026-04-28 16:35 45.31378 12.19424 26297 ft 489 kts 170°
2026-04-28 16:35 45.28063 12.20584 26155 ft 492 kts 170°
2026-04-28 16:36 45.24774 12.21733 26010 ft 494 kts 170°
2026-04-28 16:36 45.21444 12.22897 25859 ft 492 kts 170°
2026-04-28 16:36 45.18120 12.24059 25716 ft 491 kts 170°
2026-04-28 16:36 45.14814 12.25213 25574 ft 491 kts 170°
2026-04-28 16:37 45.11496 12.26369 25425 ft 490 kts 170°
2026-04-28 16:37 45.08183 12.27522 25270 ft 489 kts 170°
2026-04-28 16:37 45.04886 12.28669 25127 ft 488 kts 170°
2026-04-28 16:38 44.98315 12.30948 24841 ft 486 kts 170°
2026-04-28 16:38 44.95076 12.32069 24703 ft 486 kts 170°
2026-04-28 16:38 44.91784 12.33207 24559 ft 487 kts 170°
2026-04-28 16:38 44.88492 12.34343 24408 ft 488 kts 169°
2026-04-28 16:39 44.85193 12.35481 24273 ft 488 kts 169°
2026-04-28 16:39 44.81896 12.36617 24134 ft 489 kts 169°
2026-04-28 16:39 44.78588 12.37756 23996 ft 489 kts 169°
2026-04-28 16:39 44.75281 12.38894 23856 ft 489 kts 169°
2026-04-28 16:40 44.71987 12.40026 23722 ft 488 kts 169°
2026-04-28 16:40 44.68699 12.41155 23563 ft 485 kts 169°
2026-04-28 16:40 44.65472 12.42262 23400 ft 482 kts 169°
2026-04-28 16:40 44.61244 12.43710 23181 ft 478 kts 169°
2026-04-28 16:41 44.48417 12.48092 22567 ft 469 kts 169°
2026-04-28 16:41 44.35880 12.52350 22035 ft 463 kts 169°
2026-04-28 16:41 44.23529 12.56523 21510 ft 459 kts 169°
2026-04-28 16:41 44.20416 12.57571 21383 ft 459 kts 169°
2026-04-28 16:42 44.17309 12.58616 21265 ft 460 kts 169°
2026-04-28 16:42 44.14199 12.59660 21129 ft 461 kts 169°
2026-04-28 16:42 44.11118 12.60695 21007 ft 461 kts 169°
2026-04-28 16:42 44.08001 12.61740 20881 ft 461 kts 169°
2026-04-28 16:43 44.04878 12.62788 20757 ft 461 kts 169°
2026-04-28 16:43 44.01764 12.63832 20632 ft 460 kts 169°
2026-04-28 16:43 43.98651 12.64874 20512 ft 459 kts 169°
2026-04-28 16:43 43.95551 12.65911 20383 ft 458 kts 169°
2026-04-28 16:44 43.92458 12.66944 20258 ft 457 kts 169°
2026-04-28 16:44 43.89374 12.67974 20132 ft 456 kts 169°
2026-04-28 16:44 43.85957 12.69112 20046 ft 457 kts 169°
2026-04-28 16:44 43.74129 12.73042 20017 ft 463 kts 169°
2026-04-28 16:45 43.61654 12.77176 19950 ft 454 kts 169°
2026-04-28 16:45 43.49473 12.81203 20012 ft 450 kts 169°
2026-04-28 16:45 43.43188 12.83245 20035 ft 457 kts 169°
2026-04-28 16:45 43.30698 12.87339 20037 ft 464 kts 169°
2026-04-28 16:46 43.20942 12.90536 19991 ft 458 kts 169°
2026-04-28 16:46 43.11694 12.94252 19946 ft 458 kts 164°
2026-04-28 16:46 43.10843 12.94630 19912 ft 459 kts 164°
2026-04-28 16:47 43.10025 12.94998 19895 ft 460 kts 164°